OBJECT A, 64048

Orbit data source: Space-Track

You're viewing an Uncataloged Satellite

Recently launched and/or uncataloged satellites may have evolving metadata. Metadata may include but not limited to: Owner, Maufacturer, Bus, Motor, and Mission.

OBJECT A, 64048 is a Chinese satellite in SSO that was launched on Sat, 17 May 2025 UTC via a ZHUQUE-2E launch vehicle from the Jiuquan Satellite Launch Center, China (JSC). Unknown objects in Earth's orbit typically refer to objects detected orbiting the Earth but have not yet been identified or cataloged. These objects could be anything from previously untracked satellites, spent rocket stages, debris from satellite collisions, or even natural meteoroids temporarily captured by Earth's gravity.

Loading next visibility...
Identifier
64048, 2025-103A
Orbit
SSO
Country
Flag of CNCN / PRC
Related business
Manufacturer
Changsha Tianyi
Mission
Operational Amateur Imaging
Bus & Motor
TY, Unknown motor
Mass
~50 kg wet, ~50 kg dry
Launch date (UTC)
2025-05-17 (1 year ago)
Launch vehicle
ZHUQUE-2E
Launch site
Jiuquan Satellite Launch Center, China (JSC)
Object type
Unknown
Shape & HBR
Box + 2 Pan, 0.5 m
Radar Cross Section
0.255 m², Large (>1 m²)

Expand to show TLE details & history
Last TLE update: 7 hours ago

TLE from 7 hours ago
0 OBJECT A
1 64048U 25103A   26150.12708606  .00002025  00000-0  99488-4 0  9998
2 64048  97.4120 223.0217 0001632  89.7973 270.3448 15.19180849 57331
Epoch: 2026-05-30T03:03Z
TLE epoch observation values (Epoch: 2026-05-30T03:03:00.235Z)
Latitude
-0.0001°
Longitude
-70.37685°
Altitude
511.397 km
Speed
7.608 km/s
True Right ascension
14h 52m 05s
True Declination
0° 00' 00"
Sunlit
Object was in full shadow at epoch
Visualization orbit readout
Latitude
Unknown
Longitude
Unknown
Altitude
Unknown
Speed
Unknown
Apparent Right ascension
Unknown
Apparent Declination
Unknown
Sunlit
N/A
Visualization observer readout
Local Sidereal Time
19:45:54
Azimuth
Unknown
Elevation
Unknown
Doppler factor
Unknown
Orbital elements
Apogee altitude
506.406 km
Perigee altitude
504.159 km
Semi-major axis
6,883.419 km
Eccentricity
0.00016
Inclination
97.412°
RAAN
223.0217°
Arg. of periapsis
89.7973°
True anomaly
270.3261°
Mean anomaly
270.3448°
Eccentric anomaly
270.33545°
Mean motion
3.80047 °/min
Orbital period
94.73 mins
BSTAR
0.000099488
Loading maneuver chart data...
Computing Atmospheric mass density...
Loading historical data...
Loading historical data...
Loading historical data...
Loading historical data...
Loading historical data...
Loading historical data...
Loading historical data...

Documentation

Showing up to 5 results
|